Regional Weather Roundup
Issued by NWS Green Bay, WI

Home | Current Version | Previous Version | Text Only | Print | Product List | Glossary On
Versions: 1 2 3 4 5 6 7 8 9 10 11 12 13 14 15 16 17 18 19 20 21 22 23 24 25 26 27 28 29 30 31 32 33 34 35 36 37 38 39 40 41 42 43 44 45 46 47 48 49 50
000
ASUS43 KGRB 300859
RWRGRB

NORTH-CENTRAL AND NORTHEAST WISCONSIN REGIONAL WEATHER ROUNDUP
NATIONAL WEATHER SERVICE GREEN BAY WI
300 AM CST FRI JAN 30 2015

WIZ005-009-010>012-018-019-301000-
NORTH CENTRAL WISCONSIN

CITY           SKY/WX    TMP DP  RH WIND       PRES   REMARKS
IRONWOOD       CLOUDY    12   3  67 NW7       30.41S WCI   2
MANITOWISH WTR NOT AVBL
ARBOR VITAE    NOT AVBL
EAGLE RIVER    NOT AVBL
LAND O LAKES   NOT AVBL
RHINELANDER    CLOUDY    11   2  67 NW9G20    30.39R WCI  -2
PHILLIPS       NOT AVBL
ANTIGO         NOT AVBL
TOMAHAWK       NOT AVBL
MERRILL        NOT AVBL
$$

WIZ013-073-301000-
NORTHEAST WISCONSIN

CITY           SKY/WX    TMP DP  RH WIND       PRES   REMARKS
IRON MOUNTAIN  CLOUDY    12   2  64 NW12      30.38R WCI  -2
MARINETTE      CLOUDY    16   1  53 N12       30.42R WCI   3
$$

WIZ017-030-035>037-045-301000-
CENTRAL WISCONSIN

CITY           SKY/WX    TMP DP  RH WIND       PRES   REMARKS
MEDFORD        NOT AVBL
WAUSAU         CLOUDY    15   4  61 NW9       30.41R WCI   3
MOSINEE        NOT AVBL
MARSHFIELD     CLOUDY    13   4  67 NW9       30.43R WCI   1
WISC RAPIDS    CLOUDY    17   6  62 NW7       30.45R WCI   8
STEVENS POINT  NOT AVBL
WAUPACA        NOT AVBL
SHAWANO        NOT AVBL
CLINTONVILLE   NOT AVBL
$$

WIZ038-039-048-051-301000-
FOX VALLEY

CITY           SKY/WX    TMP DP  RH WIND       PRES   REMARKS
NWS GREEN BAY  MOCLDY    17   5  59 NW7       30.42R WCI   8
APPLETON       NOT AVBL
OSHKOSH        MOCLDY    19   6  57 NW10      30.42R WCI   7
FOND DU LAC    PTCLDY    17   6  62 NW9       30.42R WCI   6
$$

WIZ022-050-052-301000-
EAST CENTRAL WISCONSIN

CITY           SKY/WX    TMP DP  RH WIND       PRES   REMARKS
STURGEON BAY   CLOUDY    16   3  57 N15       30.42R WCI   1
MANITOWOC      NOT AVBL
SHEBOYGAN      CLOUDY    20   9  62 N10       30.40R WCI   9
$$

LMZ563-521-522-541>543-301000-
LAKESHORE

STATION/POSITION TIME  TEMP    WIND        PRES    VSBY  WAVE
                       AIR SEA DIR/SP/G                  HT/PER
                 (UTC) (F)     (DEG/KT/KT) (MB)    (MI)  (FT/S)
SHEBOYGAN LKSHOR 0800   21     350/ 21/ 23 1030.5R
KEWAUNEE LKSHORE 0800   16     350/ 11/ 15 1028.6R
NORTHPORT PIER   0800   17     320/ 22     1029.1R
SISTER BAY LKSHO 0800   16     360/ 24/ 30   N/A
CHAMBERS ISLAND  0800   16     310/ 17/ 21 1029.5R
MENOMINEE LKSHOR 0800   17     320/ 15     1030.4R
$$



USA.gov is the U.S. government's official web portal to all federal, state and local government web resources and services.